Total_Precipitation_Accumulation
0.02 0.06 0.12 0.17 0.16 0.11 0.06 0.05 0.06 0.07 0.13 0.21 0.36 0.46 0.48 0.48 0.49 0.43 0.32 0.31 0.32 0.34 0.34 0.37 0.43 0.47 0.53 0.65 0.65 0.69 0.81 0.89 0.97 1.00 1.07 1.21 1.29 1.25 1.29 1.31 1.32 1.45 1.52 1.50
0.03 0.05 0.08 0.11 0.14 0.10 0.06 0.06 0.05 0.07 0.14 0.26 0.43 0.48 0.51 0.47 0.43 0.40 0.40 0.36 0.40 0.44 0.44 0.43 0.46 0.55 0.63 0.69 0.73 0.87 1.17 1.27 1.28 1.32 1.36 1.38 1.39 1.37 1.43 1.50 1.66 1.72 1.68 1.65
0.05 0.07 0.08 0.13 0.12 0.10 0.09 0.08 0.08 0.12 0.21 0.29 0.41 0.55 0.62 0.54 0.42 0.41 0.39 0.42 0.48 0.59 0.63 0.58 0.58 0.63 0.72 0.76 0.80 0.95 1.17 1.30 1.39 1.42 1.44 1.50 1.51 1.53 1.56 1.63 1.71 1.81 1.89 1.86
0.10 0.10 0.17 0.16 0.14 0.15 0.13 0.13 0.16 0.25 0.36 0.40 0.42 0.48 0.51 0.43 0.42 0.45 0.46 0.53 0.61 0.62 0.69 0.73 0.76 0.79 0.89 1.01 1.12 1.19 1.28 1.39 1.53 1.57 1.61 1.63 1.61 1.54 1.52 1.57 1.58 1.57 1.57 1.54
0.21 0.20 0.18 0.17 0.20 0.22 0.21 0.26 0.29 0.41 0.52 0.58 0.56 0.54 0.63 0.56 0.53 0.53 0.58 0.62 0.71 0.80 0.81 0.87 0.99 1.05 1.07 1.22 1.36 1.43 1.48 1.62 1.74 1.83 1.90 1.81 1.68 1.65 1.61 1.59 1.48 1.39 1.34 1.33
0.33 0.34 0.34 0.27 0.31 0.30 0.32 0.54 0.53 0.58 0.68 0.74 0.75 0.91 0.97 0.74 0.69 0.64 0.63 0.66 0.71 0.86 1.02 1.01 1.11 1.21 1.26 1.28 1.32 1.39 1.44 1.54 1.68 1.79 1.95 2.01 1.92 1.87 1.77 1.71 1.61 1.50 1.42 1.40
0.41 0.43 0.39 0.37 0.35 0.37 0.66 0.90 0.83 0.79 0.79 0.87 0.97 0.92 0.86 0.73 0.73 0.72 0.66 0.67 0.70 0.78 0.94 1.00 1.07 1.16 1.28 1.32 1.26 1.28 1.28 1.29 1.42 1.60 1.79 1.88 1.92 1.85 1.82 1.74 1.63 1.48 1.36 1.33
0.54 0.68 0.77 0.55 0.45 0.65 0.91 0.92 1.00 0.92 0.91 0.95 0.99 1.00 0.94 0.86 0.81 0.75 0.66 0.66 0.70 0.75 0.82 0.94 1.09 1.27 1.41 1.42 1.38 1.36 1.39 1.48 1.54 1.59 1.61 1.59 1.62 1.62 1.67 1.68 1.63 1.50 1.31 1.16
0.82 0.96 0.89 0.65 0.66 0.74 0.76 0.92 0.98 0.94 0.95 0.98 0.96 0.95 0.89 0.80 0.77 0.81 0.74 0.72 0.70 0.77 0.85 0.99 1.17 1.38 1.58 1.60 1.60 1.60 1.61 1.61 1.59 1.58 1.57 1.57 1.54 1.52 1.50 1.44 1.34 1.24 1.10 1.08
1.09 1.22 1.04 0.87 0.78 0.79 0.85 0.93 0.98 0.95 1.01 1.02 0.94 0.87 0.84 0.81 0.78 0.84 0.84 0.78 0.77 0.78 0.83 0.94 1.04 1.17 1.37 1.45 1.49 1.57 1.52 1.44 1.36 1.32 1.33 1.36 1.39 1.40 1.40 1.35 1.29 1.19 1.07 1.08
1.39 1.57 1.43 1.24 1.03 0.93 1.02 1.16 1.22 1.19 1.12 1.04 1.05 1.07 1.11 1.06 0.94 0.86 0.86 0.88 0.85 0.85 0.88 0.91 0.96 1.01 1.10 1.20 1.30 1.44 1.50 1.45 1.41 1.38 1.34 1.35 1.40 1.47 1.39 1.33 1.29 1.18 1.09 1.14
1.59 1.60 1.64 1.53 1.24 1.13 1.20 1.33 1.36 1.27 1.27 1.25 1.22 1.20 1.10 1.04 0.96 0.88 0.84 0.87 0.91 0.94 0.96 0.95 0.98 1.04 1.10 1.20 1.36 1.52 1.52 1.44 1.44 1.46 1.47 1.46 1.43 1.45 1.51 1.37 1.30 1.18 1.13 1.13
1.28 1.42 1.52 1.46 1.35 1.31 1.33 1.38 1.44 1.37 1.27 1.28 1.22 1.15 1.08 1.01 0.96 0.91 0.91 0.93 0.99 1.03 0.98 0.93 0.94 1.01 1.11 1.24 1.43 1.56 1.55 1.51 1.47 1.45 1.47 1.46 1.38 1.35 1.40 1.33 1.14 1.02 0.98 0.94
1.30 1.40 1.55 1.56 1.52 1.44 1.48 1.54 1.55 1.47 1.34 1.24 1.17 1.10 1.08 1.11 1.10 1.05 1.03 1.08 1.07 0.99 0.88 0.84 0.87 0.89 0.96 1.09 1.31 1.48 1.49 1.51 1.47 1.41 1.39 1.37 1.33 1.32 1.30 1.29 1.18 1.02 0.90 0.81
1.27 1.24 1.37 1.39 1.46 1.46 1.52 1.50 1.46 1.45 1.32 1.20 1.09 1.01 0.96 1.01 1.15 1.21 1.20 1.24 1.15 1.00 0.90 0.83 0.79 0.76 0.79 0.87 0.97 1.10 1.15 1.15 1.16 1.19 1.21 1.20 1.15 1.10 1.05 1.02 1.00 0.99 0.85 0.69
1.10 1.17 1.16 1.27 1.33 1.28 1.30 1.33 1.34 1.33 1.24 1.18 1.08 1.03 0.99 0.94 0.98 1.06 1.17 1.20 1.19 1.11 0.98 0.88 0.88 0.84 0.80 0.87 0.90 0.88 0.89 0.99 0.95 0.89 0.90 0.92 0.90 0.86 0.83 0.84 0.88 0.94 0.89 0.72
1.09 1.18 1.14 1.20 1.23 1.23 1.14 1.14 1.18 1.22 1.17 1.12 1.01 0.90 0.87 0.88 0.96 1.04 1.06 0.99 0.92 0.88 0.83 0.77 0.76 0.76 0.75 0.82 0.85 0.80 0.74 0.72 0.73 0.65 0.67 0.78 0.81 0.78 0.74 0.78 0.85 0.93 0.87 0.70
0.98 1.04 1.01 0.95 0.93 1.03 1.03 1.02 1.06 1.04 1.06 1.02 0.91 0.80 0.76 0.83 0.92 0.97 0.90 0.81 0.77 0.74 0.68 0.60 0.55 0.54 0.58 0.62 0.61 0.57 0.52 0.51 0.49 0.46 0.53 0.58 0.59 0.65 0.74 0.80 0.85 0.88 0.81 0.69
0.86 0.80 0.79 0.76 0.70 0.77 0.82 0.82 0.88 0.92 0.92 0.87 0.81 0.78 0.75 0.77 0.79 0.81 0.71 0.68 0.67 0.64 0.55 0.46 0.47 0.42 0.42 0.40 0.42 0.41 0.43 0.41 0.39 0.41 0.47 0.48 0.49 0.56 0.71 0.79 0.81 0.81 0.78 0.76
0.76 0.66 0.61 0.59 0.55 0.56 0.62 0.65 0.64 0.66 0.69 0.68 0.74 0.76 0.71 0.69 0.65 0.66 0.63 0.63 0.58 0.50 0.42 0.37 0.36 0.40 0.40 0.36 0.34 0.33 0.37 0.39 0.37 0.36 0.37 0.40 0.45 0.49 0.55 0.61 0.66 0.70 0.72 0.73
0.67 0.59 0.57 0.58 0.57 0.54 0.51 0.48 0.47 0.49 0.52 0.54 0.61 0.66 0.66 0.65 0.58 0.58 0.67 0.68 0.56 0.45 0.41 0.43 0.39 0.37 0.35 0.37 0.35 0.31 0.36 0.39 0.40 0.40 0.38 0.40 0.44 0.49 0.53 0.57 0.60 0.62 0.64 0.69
0.71 0.63 0.59 0.58 0.60 0.59 0.53 0.47 0.44 0.43 0.46 0.51 0.51 0.54 0.63 0.67 0.62 0.63 0.66 0.70 0.64 0.67 0.52 0.42 0.36 0.35 0.35 0.33 0.33 0.38 0.39 0.43 0.47 0.50 0.49 0.47 0.49 0.56 0.60 0.60 0.61 0.60 0.64 0.68
0.73 0.70 0.68 0.69 0.69 0.68 0.58 0.52 0.50 0.49 0.49 0.50 0.51 0.58 0.65 0.71 0.70 0.70 0.66 0.60 0.60 0.72 0.65 0.54 0.49 0.43 0.39 0.34 0.38 0.46 0.45 0.45 0.48 0.51 0.53 0.52 0.53 0.55 0.59 0.58 0.63 0.64 0.64 0.68
0.80 0.76 0.72 0.66 0.62 0.66 0.65 0.60 0.57 0.54 0.53 0.53 0.53 0.60 0.71 0.77 0.76 0.71 0.71 0.69 0.63 0.60 0.59 0.62 0.61 0.56 0.48 0.41 0.46 0.50 0.49 0.51 0.52 0.50 0.49 0.49 0.50 0.52 0.60 0.62 0.62 0.62 0.64 0.67
0.89 0.82 0.71 0.64 0.62 0.63 0.66 0.66 0.62 0.55 0.52 0.54 0.54 0.58 0.64 0.73 0.82 0.80 0.75 0.68 0.62 0.57 0.57 0.60 0.61 0.65 0.58 0.54 0.54 0.52 0.51 0.56 0.60 0.58 0.57 0.58 0.60 0.61 0.63 0.60 0.55 0.53 0.54 0.60
0.97 0.88 0.78 0.70 0.63 0.60 0.64 0.68 0.70 0.66 0.59 0.58 0.57 0.59 0.64 0.69 0.73 0.78 0.81 0.76 0.68 0.63 0.64 0.64 0.63 0.64 0.62 0.65 0.68 0.67 0.64 0.64 0.63 0.62 0.63 0.66 0.70 0.69 0.57 0.47 0.44 0.45 0.47 0.49
0.92 0.87 0.79 0.73 0.64 0.58 0.57 0.60 0.64 0.67 0.67 0.68 0.64 0.66 0.74 0.78 0.78 0.77 0.74 0.71 0.65 0.62 0.63 0.62 0.58 0.55 0.51 0.51 0.54 0.54 0.54 0.55 0.59 0.64 0.68 0.67 0.64 0.59 0.49 0.43 0.40 0.41 0.45 0.45